Location: Starlight Observatory
(38.4029°N, 85.8936°W)
Time: 16:29:54
(UTC-04:00)

Iridium 62 - Visible Passes

Search period start: 28 July 2014 00:00
Search period end: 07 August 2014 00:00
Orbit: 776 x 779 km, 86.4° (Epoch: 28 July)

Date Brightness Start Highest point End Pass type
(mag) Time Alt. Az. Time Alt. Az. Time Alt. Az.
28 Jul 8.2 00:23:08 11° ENE 00:23:08 11° ENE 00:23:48 10° ENE visible
28 Jul 6.8 02:03:36 44° NNW 02:03:36 44° NNW 02:07:12 10° N visible
29 Jul 6.9 01:30:12 40° NNE 01:30:12 40° NNE 01:33:38 10° N visible
29 Jul 8.1 03:10:41 13° WNW 03:10:41 13° WNW 03:12:19 10° NW visible
30 Jul 7.4 00:56:48 26° NE 00:56:48 26° NE 00:59:43 10° NNE visible
30 Jul 7.6 02:37:16 23° NW 02:37:16 23° NW 02:40:09 10° NNW visible
31 Jul 7.9 00:23:23 16° ENE 00:23:23 16° ENE 00:25:14 10° NE visible
31 Jul 7.1 02:03:52 35° NW 02:03:52 35° NW 02:07:10 10° N visible
01 Aug 6.9 01:30:26 41° N 01:30:26 41° N 01:33:48 10° N visible
02 Aug 7.2 00:57:01 33° NE 00:57:01 33° NE 01:00:06 10° NNE visible
02 Aug 8.0 02:37:29 16° WNW 02:37:29 16° WNW 02:39:35 10° NW visible
03 Aug 7.7 00:23:35 21° NE 00:23:35 21° NE 00:26:00 10° NNE visible
03 Aug 7.5 02:04:03 26° NW 02:04:03 26° NW 02:06:59 10° NNW visible
03 Aug 8.1 23:50:09 12° ENE 23:50:09 12° ENE 23:51:05 10° NE visible
04 Aug 7.1 01:30:37 37° NNW 01:30:37 37° NNW 01:33:50 10° N visible
05 Aug 7.1 00:57:11 37° NNE 00:57:11 37° NNE 01:00:20 10° N visible
05 Aug 8.3 02:37:39 11° WNW 02:37:39 11° WNW 02:38:24 10° NW visible
06 Aug 7.4 00:23:44 27° NE 00:23:44 27° NE 00:26:30 10° NNE visible
06 Aug 7.9 02:04:12 20° NW 02:04:12 20° NW 02:06:37 10° NNW visible
06 Aug 7.8 23:50:16 17° NE 23:50:16 17° NE 23:52:10 10° NE visible
